Home > Weather > Rancho Cucamonga > Past weeks

Flag for USA Weather for the Past 2 Weeks in Rancho Cucamonga, California, USA

Now
54 °F

Partly cloudy.


Feels Like: 52 °F
Forecast: 51 / 69 °F
Wind: 7 mph from West

Location: Ontario International Airport

Current Time: Apr 30, 2016 at 12:42:55 AM

Latest Report: Apr 29, 2016 at 11:53 PM


Visibility: 10 mi

Pressure: 29.87 "Hg

Humidity: 80%

Dew Point: 48 °F

Location of Rancho CucamongaLocation

Historic Weather in Rancho Cucamonga — Graph

°F

Rancho Cucamonga Temperature Yesterday

Maximum temperature yesterday: 71 °F (at 3:53 PM)
Minimum temperature yesterday: 50 °F (at 4:53 AM)
Average temperature yesterday: 59 °F

High & Low Weather Summary for the Past Weeks

 TemperatureHumidityPressure
High91 °F (Apr 19, 2:53 PM)86% (Apr 15, 4:53 AM)30.05 "Hg (Apr 15, 4:53 AM)
Low47 °F (Apr 26, 2:53 AM)4% (Apr 17, 1:53 PM)29.72 "Hg (Apr 27, 11:53 PM)
Average66 °F41%29.90 "Hg
* Reported Apr 14 10:53 PM — Apr 29 10:53 PM, Rancho Cucamonga, Weather by CustomWeather, © 2016

Note: Actual official high and low records may vary slightly from our data, if they occured in-between our weather recording intervals... More about our weather records

Advertising

Rancho Cucamonga Weather History for the Previous 24 Hours

Scroll right to see more
 ConditionsComfort  
Time TempWeatherWind HumidityBarometerVisibility
10:53 PM
Fri, Apr 29
57 °FPassing clouds.9 mph74%29.87 "Hg10 mi
9:53 PM57 °FPassing clouds.6 mph78%29.90 "Hg10 mi
8:53 PM59 °FPassing clouds.10 mph72%29.90 "Hg10 mi
7:53 PM61 °FPartly sunny.10 mph67%29.90 "Hg10 mi
6:53 PM63 °FScattered clouds.12 mph60%29.89 "Hg10 mi
5:53 PM67 °FPassing clouds.16 mph51%29.88 "Hg10 mi
4:53 PM69 °FScattered clouds.14 mph47%29.89 "Hg10 mi
3:53 PM71 °FScattered clouds.14 mph44%29.91 "Hg10 mi
2:53 PM70 °FScattered clouds.8 mph44%29.93 "Hg10 mi
1:53 PM70 °FPassing clouds.12 mph41%29.95 "Hg10 mi
12:53 PM69 °FScattered clouds.12 mph42%29.97 "Hg10 mi
11:53 AM65 °FScattered clouds.No wind47%30.00 "Hg10 mi
10:53 AM61 °FBroken clouds.5 mph54%30.01 "Hg10 mi
9:53 AM57 °FPartly sunny.3 mph62%30.02 "Hg10 mi
8:53 AM55 °FOvercast.5 mph72%30.02 "Hg10 mi
7:53 AM53 °FOvercast.No wind77%30.02 "Hg10 mi
6:53 AM51 °FPassing clouds.No wind83%30.00 "Hg10 mi
5:53 AM50 °FPassing clouds.No wind83%29.98 "Hg10 mi
4:53 AM50 °FClear.No wind86%29.96 "Hg10 mi
3:53 AM51 °FClear.No wind80%29.96 "Hg10 mi
2:53 AM52 °FClear.5 mph80%29.96 "Hg10 mi
1:53 AM53 °FPassing clouds.3 mph74%29.95 "Hg10 mi
12:53 AM54 °FPassing clouds.3 mph72%29.96 "Hg10 mi
Weather by CustomWeather, © 2016

See weather overviewHow to use our weather pages